Location: Cluny
(50.9333°N, 112.8167°W)
Time: 11:54:12
(UTC-06:00)

Hamsat - Visible Passes

Search period start: 23 April 2017 00:00
Search period end: 03 May 2017 00:00
Orbit: 586 x 618 km, 97.6° (Epoch: 21 April)

Date Brightness Start Highest point End Pass type
(mag) Time Alt. Az. Time Alt. Az. Time Alt. Az.
23 Apr ? 05:05:53 10° NNE 05:09:43 30° E 05:13:31 10° SSE visible
24 Apr ? 05:17:30 10° NNE 05:21:34 38° E 05:25:36 10° SSE visible
25 Apr ? 05:29:10 10° NNE 05:33:23 49° E 05:37:35 10° S visible
27 Apr ? 04:19:23 10° ENE 04:20:30 11° E 04:21:38 10° E visible
28 Apr ? 04:30:06 10° NE 04:32:26 14° E 04:34:45 10° ESE visible
29 Apr ? 04:41:20 10° NE 04:44:21 18° E 04:47:19 10° SE visible
30 Apr ? 04:52:45 10° NE 04:56:14 23° E 04:59:40 10° SE visible
01 May ? 05:04:17 10° NNE 05:08:06 29° E 05:11:51 10° SSE visible
02 May ? 05:15:53 10° NNE 05:19:56 37° E 05:23:56 10° SSE visible
